Weather History for KJFZ - September, 2013

Change the Weather History Date:

Wednesday, September 11, 2013

  Actual Average (KBLF) Record (KBLF)
Temperature  
Mean Temperature 75 °F 68 °F  
Max Temperature 81 °F 76 °F 85 °F (1983)
Min Temperature 69 °F 59 °F 44 °F (1969)
Degree Days  
Heating Degree Days 0 1  
Month to date heating degree days 9  
Since 1 July heating degree days 15  
Cooling Degree Days 10 4  
Month to date cooling degree days 53  
Year to date cooling degree days 787  
Growing Degree Days 25 (Base 50)    
Moisture  
Dew Point 68 °F    
Average Humidity 82    
Maximum Humidity 93    
Minimum Humidity 66    
Precipitation  
Precipitation 0.40 in 0.10 in 1.52 in (1989)
Month to date precipitation 1.09  
Year to date precipitation 29.48  
Snow  
Snow 0.00 in - - ()
Month to date snowfall  
Since 1 July snowfall  
Since 1 September snowfall  
Snow Depth -    
Sea Level Pressure  
Sea Level Pressure 30.28 in    
Wind  
Wind Speed 1 mph (WSW)    
Max Wind Speed 7 mph    
Max Gust Speed -    
Visibility 9 miles    
Events Rain , Thunderstorm    
T = Trace of Precipitation, MM = Missing Value Source: NWS Daily Summary

Daily Weather History Graph

Daily Weather History Graph

Search for Another Location

Airport or City:

Trip Planner

Search our weather history database for the weather conditions in past years. The results will help you decide how hot, cold, wet, or windy it might be!

Date:

Astronomy

Sep. 11, 2013 Rise Set
Actual Time 7:06 AM EDT 7:40 PM EDT
Civil Twilight 6:40 AM EDT 8:06 PM EDT
Nautical Twilight 6:09 AM EDT 8:37 PM EDT
Astronomical Twilight 5:37 AM EDT 9:08 PM EDT
Moon 1:24 PM EDT (9/11) 11:44 PM EDT (9/11)
Length of Visible Light 13h 26m
Length of Day
12h 34m
Waxing Crescent, 38% of the Moon is Illuminated
Sep 11
Waxing Crescent
Sep 12
First Quarter
Sep 19
Full
Sep 26
Last Quarter
Oct 4
New

Hourly Weather History & Observations

Time (EDT) Temp. Heat Index Dew Point Humidity Pressure Visibility Wind Dir Wind Speed Gust Speed Precip Events Conditions
12:15 AM 75.9 °F - 66.7 °F 73% 30.32 in 10.0 mi SSE 3.5 mph - N/A   Overcast
12:35 AM 76.5 °F - 66.4 °F 71% 30.31 in 10.0 mi South 3.5 mph - N/A   Overcast
12:55 AM 75.9 °F - 66.4 °F 72% 30.31 in 10.0 mi Calm Calm - N/A   Overcast
1:15 AM 74.3 °F - 67.8 °F 80% 30.31 in 10.0 mi Calm Calm - N/A   Overcast
1:35 AM 75.0 °F - 67.1 °F 76% 30.30 in 10.0 mi Calm Calm - N/A   Scattered Clouds
1:55 AM 73.4 °F - 66.9 °F 80% 30.30 in 10.0 mi Calm Calm - N/A   Clear
2:15 AM 74.3 °F - 66.7 °F 77% 30.30 in 10.0 mi South 4.6 mph - N/A   Scattered Clouds
2:35 AM 72.1 °F - 66.9 °F 84% 30.29 in 10.0 mi Calm Calm - N/A   Scattered Clouds
2:55 AM 72.9 °F - 66.9 °F 82% 30.29 in 10.0 mi Calm Calm - N/A   Clear
3:15 AM 73.2 °F - 66.6 °F 80% 30.29 in 10.0 mi Calm Calm - N/A   Clear
3:35 AM 72.3 °F - 67.3 °F 84% 30.29 in 10.0 mi Calm Calm - N/A   Scattered Clouds
3:55 AM 73.4 °F - 66.6 °F 79% 30.28 in 10.0 mi Calm Calm - N/A   Mostly Cloudy
4:15 AM 71.1 °F - 67.1 °F 87% 30.28 in 10.0 mi Calm Calm - N/A   Mostly Cloudy
4:35 AM 72.5 °F - 67.1 °F 83% 30.29 in 10.0 mi Calm Calm - N/A   Mostly Cloudy
4:55 AM 70.9 °F - 67.3 °F 88% 30.29 in 10.0 mi Calm Calm - N/A   Scattered Clouds
5:15 AM 71.8 °F - 67.3 °F 86% 30.29 in 10.0 mi Calm Calm - N/A   Scattered Clouds
5:35 AM 71.2 °F - 66.7 °F 86% 30.30 in 10.0 mi Calm Calm - N/A   Mostly Cloudy
5:55 AM 72.3 °F - 66.6 °F 82% 30.30 in 10.0 mi West 4.6 mph - N/A   Overcast
6:15 AM 71.8 °F - 66.7 °F 84% 30.31 in 10.0 mi Calm Calm - N/A   Overcast
6:35 AM 70.9 °F - 66.7 °F 87% 30.31 in 10.0 mi Calm Calm - N/A   Overcast
6:55 AM 72.1 °F - 66.2 °F 82% 30.32 in 10.0 mi Calm Calm - N/A   Overcast
7:15 AM 72.1 °F - 66.2 °F 82% 30.31 in 10.0 mi WSW 3.5 mph - N/A   Overcast
7:35 AM 72.3 °F - 66.2 °F 81% 30.32 in 10.0 mi Calm Calm - N/A   Overcast
7:55 AM 71.2 °F - 66.6 °F 85% 30.32 in 10.0 mi Calm Calm - N/A   Overcast
8:15 AM 72.1 °F - 66.9 °F 84% 30.32 in 10.0 mi Calm Calm - N/A   Overcast
8:35 AM 72.0 °F - 67.1 °F 85% 30.32 in 10.0 mi Calm Calm - N/A   Overcast
8:55 AM 74.3 °F - 68.0 °F 81% 30.33 in 10.0 mi Calm Calm - N/A   Mostly Cloudy
9:15 AM 74.3 °F - 68.2 °F 81% 30.33 in 10.0 mi Calm Calm - N/A   Scattered Clouds
9:35 AM 74.3 °F - 68.5 °F 82% 30.33 in 10.0 mi Calm Calm - N/A   Clear
9:55 AM 75.6 °F - 68.9 °F 80% 30.33 in 10.0 mi Calm Calm - N/A   Clear
10:15 AM 77.0 °F - 68.0 °F 74% 30.33 in 10.0 mi Calm Calm - N/A   Mostly Cloudy
10:35 AM 77.5 °F - 68.5 °F 74% 30.33 in 10.0 mi Calm Calm - N/A   Scattered Clouds
10:55 AM 79.5 °F - 68.5 °F 69% 30.33 in 10.0 mi Calm Calm - N/A   Mostly Cloudy
11:15 AM 79.3 °F - 68.7 °F 70% 30.32 in 10.0 mi WNW 3.5 mph - N/A   Overcast
11:35 AM 78.8 °F - 67.8 °F 69% 30.32 in 10.0 mi NNW 4.6 mph - N/A   Overcast
11:55 AM 79.0 °F - 67.5 °F 68% 30.31 in 10.0 mi NW 6.9 mph - N/A   Overcast
12:15 PM 78.6 °F - 67.6 °F 69% 30.31 in 10.0 mi NNW 3.5 mph - N/A   Overcast
12:35 PM 80.2 °F 83.0 °F 68.2 °F 67% 30.30 in 10.0 mi WNW 5.8 mph - N/A Thunderstorm Mostly Cloudy
12:55 PM 78.8 °F - 68.4 °F 70% 30.30 in 10.0 mi NW 3.5 mph - N/A Thunderstorm Mostly Cloudy
1:15 PM 78.3 °F - 68.4 °F 71% 30.29 in 10.0 mi Calm Calm - N/A   Scattered Clouds
1:35 PM 81.1 °F 84.2 °F 68.7 °F 66% 30.27 in 10.0 mi South 3.5 mph - N/A   Scattered Clouds
1:55 PM 79.0 °F - 68.4 °F 70% 30.27 in 10.0 mi WNW 3.5 mph - N/A   Mostly Cloudy
2:15 PM 75.2 °F - 69.6 °F 83% 30.27 in 3.0 mi North 5.8 mph - 0.08 in Rain Heavy Rain
2:35 PM 73.0 °F - 69.1 °F 87% 30.27 in 2.5 mi Calm Calm - 0.24 in Rain Heavy Rain
2:55 PM 73.0 °F - 68.9 °F 87% 30.26 in 2.5 mi Calm Calm - 0.39 in Rain , Thunderstorm Rain
3:15 PM 73.8 °F - 69.4 °F 86% 30.26 in 5.0 mi Calm Calm - 0.01 in Rain , Thunderstorm Light Thunderstorms and Rain
3:35 PM 73.6 °F - 70.2 °F 89% 30.26 in 4.0 mi Calm Calm - 0.01 in Thunderstorm Overcast
3:55 PM 74.3 °F - 69.4 °F 85% 30.25 in 7.0 mi Calm Calm - 0.01 in Thunderstorm Overcast
4:15 PM 75.2 °F - 69.6 °F 83% 30.25 in 10.0 mi Calm Calm - N/A Thunderstorm Overcast
4:35 PM 75.6 °F - 70.0 °F 83% 30.24 in 10.0 mi West 3.5 mph - N/A Thunderstorm Scattered Clouds
4:55 PM 75.7 °F - 69.6 °F 81% 30.24 in 10.0 mi WNW 3.5 mph - N/A   Scattered Clouds
5:15 PM 75.9 °F - 69.1 °F 79% 30.24 in 10.0 mi West 4.6 mph - N/A   Scattered Clouds
5:35 PM 75.6 °F - 69.8 °F 82% 30.24 in 10.0 mi Calm Calm - N/A   Clear
5:55 PM 74.8 °F - 70.7 °F 87% 30.23 in 10.0 mi South 3.5 mph - N/A   Clear
6:15 PM 74.3 °F - 69.8 °F 86% 30.23 in 10.0 mi WSW 3.5 mph - N/A   Clear
6:35 PM 74.3 °F - 70.3 °F 87% 30.23 in 10.0 mi Calm Calm - N/A   Clear
6:55 PM 74.3 °F - 68.7 °F 83% 30.23 in 10.0 mi Calm Calm - N/A   Scattered Clouds
7:15 PM 74.3 °F - 68.4 °F 82% 30.23 in 10.0 mi SW 3.5 mph - N/A   Overcast
7:35 PM 73.0 °F - 68.7 °F 86% 30.23 in 10.0 mi South 3.5 mph - N/A   Scattered Clouds
7:55 PM 74.1 °F - 68.2 °F 82% 30.23 in 10.0 mi Calm Calm - N/A   Clear
8:15 PM 73.8 °F - 68.7 °F 84% 30.23 in 10.0 mi South 3.5 mph - N/A   Clear
8:35 PM 73.2 °F - 68.9 °F 86% 30.23 in 10.0 mi Calm Calm - N/A   Clear
8:55 PM 72.7 °F - 68.9 °F 88% 30.22 in 10.0 mi Calm Calm - N/A   Clear
9:15 PM 72.9 °F - 68.9 °F 87% 30.23 in 10.0 mi Calm Calm - N/A   Clear
9:35 PM 71.6 °F - 68.9 °F 91% 30.23 in 5.0 mi South 3.5 mph - N/A   Clear
9:55 PM 72.0 °F - 69.3 °F 91% 30.22 in 7.0 mi South 4.6 mph - N/A   Clear
10:15 PM 71.4 °F - 68.2 °F 89% 30.21 in 7.0 mi Calm Calm - N/A   Clear
10:35 PM 71.1 °F - 68.4 °F 91% 30.22 in 5.0 mi Calm Calm - N/A   Clear
10:55 PM 71.1 °F - 67.6 °F 89% 30.21 in 7.0 mi SSE 3.5 mph - N/A   Clear
11:15 PM 69.8 °F - 67.8 °F 93% 30.21 in 2.5 mi Calm Calm - N/A   Scattered Clouds
11:35 PM 70.2 °F - 68.0 °F 93% 30.20 in 5.0 mi Calm Calm - N/A   Scattered Clouds
11:55 PM 69.6 °F - 67.3 °F 92% 30.20 in 0.8 mi Calm Calm - N/A   Mostly Cloudy